Location: Byhalia Creek
(34.8270°N, 89.8040°W)
Time: 07:56:07
(UTC+00:00)

Cosmos 1943 - Pass Details

Date: 22 April 2026
Orbit: 832 x 847 km, 71.0° (Epoch: 15 May)

Event Time Altitude Azimuth Distance (km) Brightness Sun altitude
Exits shadow 03:27:12 65° 318° (NW) 928 3.5 -31.0°
Drops below altitude 10° 03:32:27 10° 15° (NNE) 2,470 5.9 -31.7°
Sets 03:34:56 0° 19° (NNE) 3,407 6.7 -32.1°
